| time (UTC) | temp F | wind direction | speed MPH | gust MPH | rain 1hr in | rain 24hr in | rain mn in | humidity % | barometer mb |
| 20260905042552 | 63 | 260 | 0.0 | 0.0 | 0.00 | 0.00 | 0.00 | 94 | 996.4 |
| 20260905042103 | 63 | 271 | 0.0 | 0.0 | 0.00 | 0.00 | 0.00 | 94 | 996.5 |
| 20260905041531 | 63 | 271 | 0.0 | 0.0 | 0.00 | 0.00 | 0.00 | 94 | 996.5 |
| 20260905041100 | 63 | 271 | 0.0 | 0.0 | 0.00 | 0.00 | 0.00 | 94 | 996.5 |
| 20260905040608 | 63 | 271 | 0.0 | 0.0 | 0.00 | 0.00 | 0.00 | 94 | 996.6 |
| 20260905040026 | 63 | 267 | 0.0 | 0.0 | 0.00 | 0.00 | 0.00 | 93 | 996.6 |
| 20260905035535 | 63 | 267 | 0.0 | 0.0 | 0.00 | 0.00 | 0.00 | 93 | 996.6 |
| 20260905035040 | 63 | 267 | 0.0 | 0.0 | 0.00 | 0.00 | 0.00 | 93 | 996.5 |
| 20260905034521 | 63 | 267 | 0.0 | 0.0 | 0.00 | 0.00 | 0.00 | 93 | 996.5 |
| 20260905034030 | 63 | 267 | 0.0 | 0.0 | 0.00 | 0.00 | 0.00 | 92 | 996.7 |
| 20260905033543 | 63 | 267 | 0.0 | 0.0 | 0.00 | 0.00 | 0.00 | 92 | 996.6 |
| 20260905033038 | 64 | 267 | 0.0 | 0.0 | 0.00 | 0.00 | 0.00 | 92 | 996.5 |
| 20260905032546 | 64 | 267 | 0.0 | 0.0 | 0.00 | 0.00 | 0.00 | 91 | 996.5 |
| 20260905032053 | 64 | 267 | 0.0 | 0.0 | 0.00 | 0.00 | 0.00 | 91 | 996.7 |
| 20260905031522 | 64 | 267 | 0.0 | 0.0 | 0.00 | 0.00 | 0.00 | 90 | 996.5 |
| 20260905031022 | 65 | 267 | 0.0 | 0.0 | 0.00 | 0.00 | 0.00 | 90 | 996.5 |
| 20260905030534 | 65 | 267 | 0.0 | 0.0 | 0.00 | 0.00 | 0.00 | 90 | 996.4 |
| 20260905030042 | 65 | 267 | 0.0 | 0.0 | 0.00 | 0.00 | 0.00 | 88 | 996.5 |
| 20260905025523 | 65 | 267 | 0.0 | 0.0 | 0.00 | 0.00 | 0.00 | 88 | 996.4 |
| 20260905025031 | 66 | 267 | 0.0 | 0.0 | 0.00 | 0.00 | 0.00 | 88 | 996.5 |
| 20260905024541 | 66 | 267 | 0.0 | 0.0 | 0.00 | 0.00 | 0.00 | 87 | 996.4 |
| 20260905024033 | 66 | 267 | 0.0 | 0.0 | 0.00 | 0.00 | 0.00 | 88 | 996.7 |
| 20260905023545 | 66 | 267 | 0.0 | 0.0 | 0.00 | 0.00 | 0.00 | 87 | 996.6 |
| 20260905023023 | 66 | 267 | 0.0 | 0.0 | 0.00 | 0.00 | 0.00 | 88 | 996.5 |
| 20260905022532 | 67 | 267 | 0.0 | 0.0 | 0.00 | 0.00 | 0.00 | 88 | 996.5 |
| 20260905022033 | 67 | 267 | 0.0 | 0.0 | 0.00 | 0.00 | 0.00 | 87 | 996.5 |
| 20260905021522 | 67 | 267 | 0.0 | 0.0 | 0.00 | 0.00 | 0.00 | 87 | 996.6 |
| 20260905021032 | 67 | 267 | 0.0 | 0.0 | 0.00 | 0.00 | 0.00 | 85 | 996.6 |
| 20260905020534 | 67 | 267 | 0.0 | 0.0 | 0.00 | 0.00 | 0.00 | 85 | 996.7 |
| 20260905020040 | 67 | 267 | 0.0 | 0.0 | 0.00 | 0.00 | 0.00 | 85 | 996.8 |
| 20260905015520 | 67 | 267 | 0.0 | 1.0 | 0.00 | 0.00 | 0.00 | 85 | 996.7 |
| 20260905015029 | 67 | 267 | 0.0 | 1.0 | 0.00 | 0.00 | 0.00 | 85 | 996.7 |
| 20260905014539 | 67 | 300 | 0.0 | 1.0 | 0.00 | 0.00 | 0.00 | 86 | 996.6 |
| 20260905014048 | 67 | 54 | 0.0 | 0.0 | 0.00 | 0.00 | 0.00 | 85 | 996.6 |
| 20260905013602 | 68 | 54 | 0.0 | 1.0 | 0.00 | 0.00 | 0.00 | 85 | 996.6 |
| 20260905013039 | 68 | 54 | 0.0 | 1.0 | 0.00 | 0.00 | 0.00 | 83 | 996.6 |
| 20260905012528 | 68 | 85 | 0.0 | 1.0 | 0.00 | 0.00 | 0.00 | 83 | 996.6 |
| 20260905012031 | 68 | 85 | 0.0 | 1.0 | 0.00 | 0.00 | 0.00 | 83 | 996.6 |
| 20260905011532 | 68 | 82 | 0.0 | 1.0 | 0.00 | 0.00 | 0.00 | 81 | 996.5 |
| 20260905011021 | 68 | 262 | 0.0 | 1.0 | 0.00 | 0.00 | 0.00 | 81 | 996.5 |
| 20260905010532 | 68 | 266 | 0.0 | 0.0 | 0.00 | 0.00 | 0.00 | 81 | 996.5 |
| 20260905005612 | 68 | 266 | 0.0 | 0.0 | 0.00 | 0.00 | 0.00 | 81 | 996.5 |
| 20260905005056 | 68 | 266 | 0.0 | 1.0 | 0.00 | 0.00 | 0.00 | 81 | 996.5 |
| 20260905004606 | 68 | 266 | 0.0 | 1.0 | 0.00 | 0.00 | 0.00 | 81 | 996.3 |
| 20260905004025 | 68 | 266 | 0.0 | 2.0 | 0.00 | 0.00 | 0.00 | 82 | 996.3 |
| 20260905003535 | 68 | 208 | 0.0 | 1.0 | 0.00 | 0.00 | 0.00 | 81 | 996.4 |
| 20260905003043 | 68 | 212 | 0.0 | 1.0 | 0.00 | 0.00 | 0.00 | 82 | 996.3 |
| 20260905002523 | 68 | 100 | 0.0 | 1.0 | 0.00 | 0.00 | 0.00 | 82 | 996.3 |
| 20260905002033 | 68 | 267 | 0.0 | 1.0 | 0.00 | 0.00 | 0.00 | 83 | 996.3 |
| 20260905001530 | 67 | 267 | 0.0 | 1.0 | 0.00 | 0.00 | 0.00 | 84 | 996.3 |
| 20260905001038 | 67 | 109 | 0.0 | 0.0 | 0.00 | 0.00 | 0.00 | 86 | 996.3 |
| 20260905000530 | 67 | 109 | 0.0 | 0.0 | 0.00 | 0.00 | 0.00 | 87 | 996.3 |
| 20260905000026 | 67 | 109 | 0.0 | 0.0 | 0.00 | 0.00 | 0.00 | 87 | 996.2 |
| 20260904235535 | 67 | 109 | 0.0 | 0.0 | 0.00 | 0.00 | 0.00 | 88 | 996.2 |
| 20260904235045 | 68 | 109 | 0.0 | 0.0 | 0.00 | 0.00 | 0.00 | 87 | 996.1 |
| 20260904234526 | 68 | 109 | 0.0 | 0.0 | 0.00 | 0.00 | 0.00 | 87 | 996.1 |
| 20260904234035 | 68 | 109 | 0.0 | 0.0 | 0.00 | 0.00 | 0.00 | 87 | 996.0 |
| 20260904233547 | 68 | 109 | 0.0 | 0.0 | 0.00 | 0.00 | 0.00 | 85 | 996.0 |
| 20260904233023 | 68 | 109 | 0.0 | 0.0 | 0.00 | 0.00 | 0.00 | 85 | 995.9 |
| 20260904232552 | 69 | 109 | 0.0 | 0.0 | 0.00 | 0.00 | 0.00 | 84 | 995.8 |
| 20260904232059 | 69 | 109 | 0.0 | 0.0 | 0.00 | 0.00 | 0.00 | 84 | 995.8 |
| 20260904231547 | 69 | 109 | 0.0 | 0.0 | 0.00 | 0.00 | 0.00 | 83 | 995.8 |
| 20260904231049 | 69 | 109 | 0.0 | 0.0 | 0.00 | 0.00 | 0.00 | 83 | 995.9 |
| 20260904230559 | 69 | 109 | 0.0 | 0.0 | 0.00 | 0.00 | 0.00 | 82 | 995.8 |
| 20260904230026 | 70 | 109 | 0.0 | 0.0 | 0.00 | 0.00 | 0.00 | 81 | 995.8 |
| 20260904225525 | 70 | 109 | 0.0 | 0.0 | 0.00 | 0.00 | 0.00 | 81 | 995.8 |
| 20260904225035 | 71 | 109 | 0.0 | 0.0 | 0.00 | 0.00 | 0.00 | 82 | 995.7 |
| 20260904224543 | 71 | 109 | 0.0 | 0.0 | 0.00 | 0.00 | 0.00 | 82 | 995.7 |
| 20260904224032 | 71 | 109 | 0.0 | 0.0 | 0.00 | 0.00 | 0.00 | 79 | 995.7 |
| 20260904223534 | 72 | 109 | 0.0 | 0.0 | 0.00 | 0.00 | 0.00 | 78 | 995.7 |
| 20260904223022 | 72 | 109 | 0.0 | 0.0 | 0.00 | 0.00 | 0.00 | 78 | 995.7 |
| 20260904222532 | 72 | 109 | 0.0 | 0.0 | 0.00 | 0.00 | 0.00 | 78 | 995.6 |
| 20260904222032 | 72 | 109 | 0.0 | 0.0 | 0.00 | 0.00 | 0.00 | 78 | 995.5 |
| 20260904221520 | 73 | 109 | 0.0 | 0.0 | 0.00 | 0.00 | 0.00 | 78 | 995.6 |
| 20260904221027 | 73 | 109 | 0.0 | 0.0 | 0.00 | 0.00 | 0.00 | 77 | 995.6 |
| 20260904220553 | 73 | 109 | 0.0 | 0.0 | 0.00 | 0.00 | 0.00 | 78 | 995.6 |
| 20260904220058 | 74 | 109 | 0.0 | 0.0 | 0.00 | 0.00 | 0.00 | 80 | 995.6 |
| 20260904215527 | 74 | 109 | 0.0 | 0.0 | 0.00 | 0.00 | 0.00 | 79 | 995.5 |
| 20260904215027 | 75 | 109 | 0.0 | 0.0 | 0.00 | 0.00 | 0.00 | 81 | 995.5 |
| 20260904214538 | 75 | 109 | 0.0 | 0.0 | 0.00 | 0.00 | 0.00 | 82 | 995.5 |
| 20260904214027 | 75 | 109 | 0.0 | 0.0 | 0.00 | 0.00 | 0.00 | 81 | 995.4 |
| 20260904213530 | 75 | 109 | 0.0 | 0.0 | 0.00 | 0.00 | 0.00 | 79 | 995.4 |
| 20260904213036 | 75 | 109 | 0.0 | 0.0 | 0.00 | 0.00 | 0.00 | 78 | 995.4 |
| 20260904212546 | 76 | 109 | 0.0 | 0.0 | 0.00 | 0.00 | 0.00 | 78 | 995.4 |
| 20260904212026 | 76 | 109 | 0.0 | 0.0 | 0.00 | 0.00 | 0.00 | 75 | 995.5 |
| 20260904211536 | 77 | 109 | 0.0 | 0.0 | 0.00 | 0.00 | 0.00 | 76 | 995.4 |
| 20260904211046 | 77 | 109 | 0.0 | 0.0 | 0.00 | 0.00 | 0.00 | 72 | 995.6 |
| 20260904210528 | 77 | 109 | 0.0 | 0.0 | 0.00 | 0.00 | 0.00 | 70 | 995.7 |
| 20260904210055 | 78 | 109 | 0.0 | 0.0 | 0.00 | 0.00 | 0.00 | 70 | 995.7 |
| 20260904205558 | 78 | 109 | 0.0 | 0.0 | 0.00 | 0.00 | 0.00 | 71 | 995.7 |
| 20260904205028 | 78 | 109 | 0.0 | 1.0 | 0.00 | 0.00 | 0.00 | 71 | 995.7 |
| 20260904204528 | 79 | 109 | 0.0 | 1.0 | 0.00 | 0.00 | 0.00 | 65 | 995.7 |
| 20260904204038 | 80 | 210 | 0.0 | 2.0 | 0.00 | 0.00 | 0.00 | 65 | 995.7 |
| 20260904203526 | 81 | 278 | 0.0 | 2.0 | 0.00 | 0.00 | 0.00 | 64 | 995.6 |
| 20260904203025 | 81 | 237 | 0.0 | 3.0 | 0.00 | 0.00 | 0.00 | 61 | 995.6 |
| 20260904202534 | 82 | 249 | 0.0 | 1.0 | 0.00 | 0.00 | 0.00 | 60 | 995.6 |
| 20260904202024 | 83 | 249 | 0.0 | 1.0 | 0.00 | 0.00 | 0.00 | 59 | 995.6 |
| 20260904201551 | 84 | 108 | 0.0 | 1.0 | 0.00 | 0.00 | 0.00 | 58 | 995.6 |
| 20260904201102 | 84 | 231 | 0.0 | 1.0 | 0.00 | 0.00 | 0.00 | 59 | 995.6 |
| 20260904200523 | 83 | 231 | 0.0 | 2.0 | 0.00 | 0.00 | 0.00 | 57 | 995.6 |
| 20260904200031 | 83 | 94 | 0.0 | 4.0 | 0.00 | 0.00 | 0.00 | 57 | 995.6 |
| 20260904195541 | 83 | 303 | 1.0 | 4.0 | 0.00 | 0.00 | 0.00 | 59 | 995.6 |
| 20260904195021 | 83 | 48 | 0.0 | 3.0 | 0.00 | 0.00 | 0.00 | 58 | 995.6 |
| 20260904194530 | 83 | 117 | 0.0 | 2.0 | 0.00 | 0.00 | 0.00 | 57 | 995.6 |
| 20260904194027 | 83 | 121 | 0.0 | 3.0 | 0.00 | 0.00 | 0.00 | 58 | 995.6 |
| 20260904193537 | 83 | 127 | 0.0 | 3.0 | 0.00 | 0.00 | 0.00 | 59 | 995.5 |
| 20260904193024 | 82 | 246 | 0.0 | 3.0 | 0.00 | 0.00 | 0.00 | 60 | 995.5 |
| 20260904192524 | 81 | 261 | 1.0 | 2.0 | 0.00 | 0.00 | 0.00 | 65 | 995.6 |
| 20260904192032 | 80 | 128 | 0.0 | 1.0 | 0.00 | 0.00 | 0.00 | 69 | 995.8 |
| 20260904191542 | 79 | 128 | 0.0 | 1.0 | 0.00 | 0.00 | 0.00 | 68 | 995.9 |
| 20260904191049 | 79 | 128 | 0.0 | 1.0 | 0.00 | 0.00 | 0.00 | 71 | 996.0 |
| 20260904190527 | 79 | 128 | 0.0 | 1.0 | 0.00 | 0.00 | 0.00 | 67 | 996.0 |
| 20260904190035 | 80 | 128 | 0.0 | 0.0 | 0.00 | 0.00 | 0.00 | 70 | 995.9 |
| 20260904185544 | 80 | 128 | 0.0 | 1.0 | 0.00 | 0.00 | 0.00 | 71 | 995.9 |
| 20260904185024 | 80 | 128 | 0.0 | 1.0 | 0.00 | 0.00 | 0.00 | 69 | 996.0 |
| 20260904184533 | 80 | 128 | 0.0 | 1.0 | 0.00 | 0.00 | 0.00 | 66 | 996.0 |
| 20260904184043 | 80 | 128 | 0.0 | 1.0 | 0.00 | 0.00 | 0.00 | 68 | 996.1 |
| 20260904183525 | 79 | 128 | 0.0 | 1.0 | 0.00 | 0.00 | 0.00 | 69 | 996.2 |
| 20260904183048 | 79 | 128 | 0.0 | 1.0 | 0.00 | 0.00 | 0.00 | 69 | 996.2 |
| 20260904182551 | 79 | 128 | 0.0 | 1.0 | 0.00 | 0.00 | 0.00 | 70 | 996.2 |
| 20260904182039 | 80 | 97 | 0.0 | 0.0 | 0.00 | 0.00 | 0.00 | 65 | 996.2 |
| 20260904181549 | 80 | 91 | 0.0 | 0.0 | 0.00 | 0.00 | 0.00 | 67 | 996.2 |
| 20260904181029 | 81 | 91 | 0.0 | 3.0 | 0.00 | 0.00 | 0.00 | 60 | 996.2 |
| 20260904180537 | 81 | 91 | 1.0 | 3.0 | 0.00 | 0.00 | 0.00 | 58 | 996.3 |
| 20260904180045 | 80 | 217 | 0.0 | 1.0 | 0.00 | 0.00 | 0.00 | 63 | 996.2 |
| 20260904175524 | 80 | 228 | 0.0 | 3.0 | 0.00 | 0.00 | 0.00 | 62 | 996.3 |
| 20260904175030 | 81 | 110 | 0.0 | 4.0 | 0.00 | 0.00 | 0.00 | 60 | 996.3 |
| 20260904174540 | 81 | 110 | 1.0 | 4.0 | 0.00 | 0.00 | 0.00 | 60 | 996.3 |
| 20260904174020 | 82 | 270 | 0.0 | 2.0 | 0.00 | 0.00 | 0.00 | 61 | 996.3 |
| 20260904173532 | 81 | 149 | 0.0 | 2.0 | 0.00 | 0.00 | 0.00 | 62 | 996.3 |
| 20260904173042 | 79 | 211 | 0.0 | 2.0 | 0.00 | 0.00 | 0.00 | 64 | 996.4 |
| 20260904172521 | 79 | 91 | 0.0 | 2.0 | 0.00 | 0.00 | 0.00 | 67 | 996.5 |
| 20260904172030 | 79 | 140 | 0.0 | 4.0 | 0.00 | 0.00 | 0.00 | 65 | 996.4 |
| 20260904171601 | 80 | 132 | 0.0 | 4.0 | 0.00 | 0.00 | 0.00 | 62 | 996.4 |
| 20260904171108 | 82 | 61 | 1.0 | 4.0 | 0.00 | 0.00 | 0.00 | 58 | 996.4 |
| 20260904170533 | 83 | 250 | 0.0 | 2.0 | 0.00 | 0.00 | 0.00 | 64 | 996.3 |
| 20260904170042 | 82 | 302 | 0.0 | 2.0 | 0.00 | 0.00 | 0.00 | 64 | 996.2 |
| 20260904165522 | 81 | 214 | 0.0 | 3.0 | 0.00 | 0.00 | 0.00 | 63 | 996.3 |
| 20260904165049 | 80 | 108 | 1.0 | 3.0 | 0.00 | 0.00 | 0.00 | 64 | 996.4 |
| 20260904164557 | 80 | 213 | 1.0 | 4.0 | 0.00 | 0.00 | 0.00 | 65 | 996.4 |
| 20260904164025 | 79 | 270 | 1.0 | 4.0 | 0.00 | 0.00 | 0.00 | 64 | 996.5 |
| 20260904163528 | 79 | 299 | 1.0 | 4.0 | 0.00 | 0.00 | 0.00 | 61 | 996.7 |
| 20260904163036 | 79 | 240 | 2.0 | 4.0 | 0.00 | 0.00 | 0.00 | 64 | 996.7 |
| 20260904162522 | 78 | 300 | 0.0 | 4.0 | 0.00 | 0.00 | 0.00 | 72 | 996.7 |
| 20260904162023 | 78 | 209 | 0.0 | 4.0 | 0.00 | 0.00 | 0.00 | 66 | 996.8 |
| 20260904161529 | 78 | 116 | 1.0 | 5.0 | 0.00 | 0.00 | 0.00 | 67 | 996.8 |
| 20260904161035 | 79 | 109 | 1.0 | 8.0 | 0.00 | 0.00 | 0.00 | 65 | 996.8 |
| 20260904160545 | 79 | 296 | 2.0 | 8.0 | 0.00 | 0.00 | 0.00 | 62 | 996.8 |
| 20260904160021 | 78 | 116 | 1.0 | 4.0 | 0.00 | 0.00 | 0.00 | 71 | 996.9 |
| 20260904155550 | 78 | 280 | 1.0 | 3.0 | 0.00 | 0.00 | 0.00 | 68 | 997.0 |
| 20260904155110 | 77 | 220 | 1.0 | 8.0 | 0.00 | 0.00 | 0.00 | 69 | 997.1 |
| 20260904154526 | 77 | 150 | 0.0 | 3.0 | 0.00 | 0.00 | 0.00 | 70 | 997.1 |
| 20260904154036 | 78 | 119 | 1.0 | 3.0 | 0.00 | 0.00 | 0.00 | 67 | 997.1 |
| 20260904153547 | 78 | 131 | 1.0 | 4.0 | 0.00 | 0.00 | 0.00 | 65 | 997.1 |
| 20260904153053 | 78 | 130 | 1.0 | 4.0 | 0.00 | 0.00 | 0.00 | 68 | 997.2 |
| 20260904152603 | 78 | 156 | 0.0 | 5.0 | 0.00 | 0.00 | 0.00 | 69 | 997.3 |
| 20260904152022 | 77 | 221 | 2.0 | 5.0 | 0.00 | 0.00 | 0.00 | 72 | 997.3 |
| 20260904151528 | 77 | 225 | 1.0 | 4.0 | 0.00 | 0.00 | 0.00 | 68 | 997.4 |
| 20260904151028 | 78 | 108 | 1.0 | 4.0 | 0.00 | 0.00 | 0.00 | 70 | 997.3 |
| 20260904150540 | 78 | 58 | 0.0 | 8.0 | 0.00 | 0.00 | 0.00 | 73 | 997.2 |
| 20260904150027 | 77 | 252 | 2.0 | 8.0 | 0.00 | 0.00 | 0.00 | 68 | 997.2 |
| 20260904145528 | 77 | 132 | 1.0 | 2.0 | 0.00 | 0.00 | 0.00 | 76 | 997.2 |
| 20260904145037 | 76 | 277 | 1.0 | 5.0 | 0.00 | 0.00 | 0.00 | 76 | 997.2 |
| 20260904144546 | 75 | 63 | 0.0 | 5.0 | 0.00 | 0.00 | 0.00 | 79 | 997.2 |
| 20260904144026 | 75 | 207 | 0.0 | 5.0 | 0.00 | 0.00 | 0.00 | 78 | 997.2 |
| 20260904143537 | 74 | 236 | 1.0 | 5.0 | 0.00 | 0.00 | 0.00 | 81 | 997.2 |
| 20260904143045 | 73 | 155 | 0.0 | 7.0 | 0.00 | 0.00 | 0.00 | 82 | 997.2 |
| 20260904142526 | 72 | 211 | 1.0 | 7.0 | 0.00 | 0.00 | 0.00 | 84 | 997.2 |
| 20260904142035 | 72 | 266 | 0.0 | 2.0 | 0.00 | 0.00 | 0.00 | 88 | 997.2 |
| 20260904141544 | 71 | 71 | 0.0 | 2.0 | 0.00 | 0.00 | 0.00 | 89 | 997.1 |
| 20260904141043 | 70 | 207 | 0.0 | 2.0 | 0.00 | 0.00 | 0.00 | 91 | 997.1 |
| 20260904140605 | 69 | 244 | 1.0 | 3.0 | 0.00 | 0.00 | 0.00 | 92 | 997.2 |
| 20260904140023 | 69 | 158 | 1.0 | 3.0 | 0.00 | 0.00 | 0.00 | 95 | 997.2 |
| 20260904135528 | 68 | 142 | 1.0 | 2.0 | 0.00 | 0.00 | 0.00 | 97 | 997.2 |
| 20260904135026 | 68 | 268 | 0.0 | 3.0 | 0.00 | 0.00 | 0.00 | 98 | 997.2 |
| 20260904134536 | 67 | 203 | 1.0 | 3.0 | 0.00 | 0.00 | 0.00 | 99 | 997.2 |
| 20260904134024 | 67 | 114 | 0.0 | 1.0 | 0.00 | 0.00 | 0.00 | 100 | 997.2 |
| 20260904133525 | 66 | 103 | 0.0 | 1.0 | 0.00 | 0.00 | 0.00 | 100 | 997.1 |
| 20260904133033 | 66 | 214 | 0.0 | 2.0 | 0.00 | 0.00 | 0.00 | 100 | 997.2 |
| 20260904132541 | 66 | 294 | 0.0 | 2.0 | 0.00 | 0.00 | 0.00 | 100 | 997.2 |
| 20260904132050 | 65 | 256 | 0.0 | 1.0 | 0.00 | 0.00 | 0.00 | 100 | 997.3 |
| 20260904131600 | 65 | 221 | 0.0 | 2.0 | 0.00 | 0.00 | 0.00 | 100 | 997.3 |
| 20260904131037 | 65 | 238 | 0.0 | 2.0 | 0.00 | 0.00 | 0.00 | 100 | 997.3 |
| 20260904130547 | 65 | 230 | 0.0 | 2.0 | 0.00 | 0.00 | 0.00 | 100 | 997.3 |
| 20260904130053 | 65 | 262 | 0.0 | 2.0 | 0.00 | 0.00 | 0.00 | 100 | 997.4 |
| 20260904125521 | 65 | 222 | 0.0 | 2.0 | 0.00 | 0.00 | 0.00 | 100 | 997.4 |
| 20260904125046 | 65 | 124 | 0.0 | 2.0 | 0.00 | 0.00 | 0.00 | 100 | 997.4 |
| 20260904124527 | 64 | 117 | 0.0 | 1.0 | 0.00 | 0.00 | 0.00 | 100 | 997.4 |
| 20260904124036 | 64 | 124 | 0.0 | 1.0 | 0.00 | 0.00 | 0.00 | 100 | 997.4 |
| 20260904123548 | 64 | 117 | 0.0 | 1.0 | 0.00 | 0.00 | 0.00 | 100 | 997.5 |
| 20260904123025 | 63 | 111 | 0.0 | 0.0 | 0.00 | 0.00 | 0.00 | 100 | 997.5 |
| 20260904122535 | 63 | 111 | 0.0 | 0.0 | 0.00 | 0.00 | 0.00 | 100 | 997.6 |
| 20260904122046 | 62 | 111 | 0.0 | 0.0 | 0.00 | 0.00 | 0.00 | 100 | 997.6 |
| 20260904121524 | 62 | 111 | 0.0 | 0.0 | 0.00 | 0.00 | 0.00 | 100 | 997.6 |
| 20260904121049 | 62 | 111 | 0.0 | 0.0 | 0.00 | 0.00 | 0.00 | 100 | 997.6 |
| 20260904120602 | 62 | 111 | 0.0 | 1.0 | 0.00 | 0.00 | 0.00 | 100 | 997.6 |
| 20260904120020 | 61 | 46 | 0.0 | 1.0 | 0.00 | 0.00 | 0.00 | 100 | 997.6 |
| 20260904115520 | 61 | 45 | 0.0 | 1.0 | 0.00 | 0.00 | 0.00 | 100 | 997.6 |
| 20260904115030 | 60 | 102 | 0.0 | 0.0 | 0.00 | 0.00 | 0.00 | 100 | 997.5 |
| 20260904114551 | 60 | 102 | 0.0 | 0.0 | 0.00 | 0.00 | 0.00 | 100 | 997.3 |
| 20260904114059 | 60 | 102 | 0.0 | 1.0 | 0.00 | 0.00 | 0.00 | 100 | 997.3 |
| 20260904113549 | 59 | 102 | 0.0 | 1.0 | 0.00 | 0.00 | 0.00 | 100 | 997.2 |
| 20260904113036 | 59 | 102 | 0.0 | 1.0 | 0.00 | 0.00 | 0.00 | 100 | 997.2 |
| 20260904112537 | 59 | 102 | 0.0 | 1.0 | 0.00 | 0.00 | 0.00 | 100 | 997.2 |
| 20260904112026 | 58 | 102 | 0.0 | 1.0 | 0.00 | 0.00 | 0.00 | 100 | 997.3 |
| 20260904111536 | 58 | 97 | 0.0 | 0.0 | 0.00 | 0.00 | 0.00 | 100 | 997.2 |
| 20260904111036 | 58 | 97 | 0.0 | 0.0 | 0.00 | 0.00 | 0.00 | 100 | 997.2 |
| 20260904110548 | 58 | 97 | 0.0 | 0.0 | 0.00 | 0.00 | 0.00 | 100 | 997.1 |
| 20260904110054 | 57 | 97 | 0.0 | 0.0 | 0.00 | 0.00 | 0.00 | 100 | 997.0 |
| 20260904105522 | 57 | 97 | 0.0 | 0.0 | 0.00 | 0.00 | 0.00 | 100 | 997.0 |
| 20260904105023 | 57 | 97 | 0.0 | 0.0 | 0.00 | 0.00 | 0.00 | 100 | 997.0 |
| 20260904104532 | 57 | 97 | 0.0 | 0.0 | 0.00 | 0.00 | 0.00 | 100 | 996.9 |
| 20260904104022 | 57 | 97 | 0.0 | 0.0 | 0.00 | 0.00 | 0.00 | 100 | 996.9 |
| 20260904103549 | 57 | 97 | 0.0 | 0.0 | 0.00 | 0.00 | 0.00 | 100 | 996.8 |
| 20260904103046 | 56 | 97 | 0.0 | 0.0 | 0.00 | 0.00 | 0.00 | 100 | 996.7 |
| 20260904102554 | 56 | 97 | 0.0 | 0.0 | 0.00 | 0.00 | 0.00 | 100 | 996.7 |
| 20260904102022 | 56 | 97 | 0.0 | 0.0 | 0.00 | 0.00 | 0.00 | 100 | 996.6 |
| 20260904101532 | 56 | 97 | 0.0 | 0.0 | 0.00 | 0.00 | 0.00 | 100 | 996.6 |
| 20260904101059 | 56 | 97 | 0.0 | 0.0 | 0.00 | 0.00 | 0.00 | 100 | 996.5 |
| 20260904100611 | 56 | 97 | 0.0 | 0.0 | 0.00 | 0.00 | 0.00 | 100 | 996.5 |
| 20260904100028 | 56 | 97 | 0.0 | 0.0 | 0.00 | 0.02 | 0.00 | 100 | 996.4 |
| 20260904095538 | 56 | 97 | 0.0 | 0.0 | 0.00 | 0.02 | 0.00 | 100 | 996.3 |
| 20260904095047 | 56 | 97 | 0.0 | 0.0 | 0.00 | 0.02 | 0.00 | 100 | 996.4 |
| 20260904094546 | 56 | 97 | 0.0 | 0.0 | 0.00 | 0.02 | 0.00 | 100 | 996.5 |
| 20260904094102 | 56 | 97 | 0.0 | 0.0 | 0.00 | 0.02 | 0.00 | 100 | 996.4 |
| 20260904093522 | 56 | 97 | 0.0 | 0.0 | 0.00 | 0.02 | 0.00 | 100 | 996.3 |
| 20260904093030 | 56 | 97 | 0.0 | 0.0 | 0.00 | 0.02 | 0.00 | 100 | 996.3 |
| 20260904092526 | 57 | 97 | 0.0 | 0.0 | 0.00 | 0.02 | 0.00 | 100 | 996.3 |
| 20260904092035 | 57 | 97 | 0.0 | 0.0 | 0.00 | 0.02 | 0.00 | 100 | 996.3 |
| 20260904091524 | 57 | 97 | 0.0 | 0.0 | 0.00 | 0.02 | 0.00 | 100 | 996.2 |
| 20260904091024 | 57 | 97 | 0.0 | 0.0 | 0.00 | 0.02 | 0.00 | 100 | 996.2 |
| 20260904090536 | 57 | 97 | 0.0 | 0.0 | 0.00 | 0.02 | 0.00 | 100 | 996.2 |
| 20260904090042 | 57 | 97 | 0.0 | 0.0 | 0.00 | 0.04 | 0.00 | 100 | 996.2 |
| 20260904085531 | 56 | 97 | 0.0 | 0.0 | 0.00 | 0.04 | 0.00 | 99 | 996.1 |
| 20260904085031 | 57 | 97 | 0.0 | 0.0 | 0.00 | 0.04 | 0.00 | 99 | 996.2 |
| 20260904084538 | 57 | 97 | 0.0 | 0.0 | 0.00 | 0.04 | 0.00 | 99 | 996.2 |
| 20260904084047 | 57 | 97 | 0.0 | 0.0 | 0.00 | 0.04 | 0.00 | 99 | 996.2 |
| 20260904083530 | 57 | 97 | 0.0 | 0.0 | 0.00 | 0.04 | 0.00 | 99 | 996.1 |
| 20260904083026 | 57 | 97 | 0.0 | 0.0 | 0.00 | 0.04 | 0.00 | 99 | 996.1 |
| 20260904082521 | 57 | 97 | 0.0 | 0.0 | 0.00 | 0.04 | 0.00 | 100 | 996.2 |
| 20260904082026 | 57 | 97 | 0.0 | 0.0 | 0.00 | 0.04 | 0.00 | 100 | 996.2 |
| 20260904081535 | 57 | 97 | 0.0 | 0.0 | 0.00 | 0.04 | 0.00 | 99 | 996.1 |
| 20260904081044 | 57 | 97 | 0.0 | 0.0 | 0.00 | 0.04 | 0.00 | 99 | 996.0 |
| 20260904080526 | 57 | 97 | 0.0 | 0.0 | 0.00 | 0.04 | 0.00 | 99 | 996.1 |
| 20260904080034 | 58 | 97 | 0.0 | 0.0 | 0.00 | 0.06 | 0.00 | 99 | 996.1 |
| 20260904075531 | 58 | 97 | 0.0 | 0.0 | 0.00 | 0.06 | 0.00 | 99 | 996.2 |
| 20260904075038 | 58 | 97 | 0.0 | 0.0 | 0.00 | 0.06 | 0.00 | 99 | 996.2 |
| 20260904074528 | 58 | 97 | 0.0 | 0.0 | 0.00 | 0.06 | 0.00 | 99 | 996.2 |
| 20260904074028 | 58 | 97 | 0.0 | 0.0 | 0.00 | 0.06 | 0.00 | 99 | 996.1 |
| 20260904073541 | 58 | 97 | 0.0 | 0.0 | 0.00 | 0.06 | 0.00 | 100 | 996.0 |
| 20260904073027 | 58 | 97 | 0.0 | 0.0 | 0.00 | 0.06 | 0.00 | 99 | 996.0 |
| 20260904072526 | 58 | 97 | 0.0 | 0.0 | 0.00 | 0.06 | 0.00 | 99 | 996.1 |
| 20260904072036 | 58 | 97 | 0.0 | 0.0 | 0.00 | 0.06 | 0.00 | 99 | 996.2 |
| 20260904071545 | 58 | 97 | 0.0 | 0.0 | 0.00 | 0.06 | 0.00 | 99 | 996.2 |
| 20260904071023 | 58 | 97 | 0.0 | 0.0 | 0.00 | 0.06 | 0.00 | 99 | 996.2 |
| 20260904070539 | 58 | 97 | 0.0 | 0.0 | 0.00 | 0.06 | 0.00 | 99 | 996.2 |
| 20260904070039 | 58 | 97 | 0.0 | 0.0 | 0.00 | 0.07 | 0.00 | 99 | 996.3 |
| 20260904065527 | 58 | 97 | 0.0 | 0.0 | 0.00 | 0.07 | 0.00 | 99 | 996.3 |
| 20260904065028 | 58 | 97 | 0.0 | 0.0 | 0.00 | 0.07 | 0.00 | 99 | 996.2 |
| 20260904064539 | 58 | 97 | 0.0 | 0.0 | 0.00 | 0.07 | 0.00 | 99 | 996.3 |
| 20260904064047 | 58 | 97 | 0.0 | 0.0 | 0.00 | 0.07 | 0.00 | 99 | 996.2 |
| 20260904063553 | 58 | 97 | 0.0 | 0.0 | 0.00 | 0.07 | 0.00 | 99 | 996.2 |
| 20260904063023 | 58 | 97 | 0.0 | 0.0 | 0.00 | 0.07 | 0.00 | 99 | 996.2 |
| 20260904062522 | 58 | 97 | 0.0 | 0.0 | 0.00 | 0.07 | 0.00 | 99 | 996.2 |
| 20260904062030 | 59 | 97 | 0.0 | 0.0 | 0.00 | 0.07 | 0.00 | 99 | 996.2 |
| 20260904061540 | 59 | 97 | 0.0 | 0.0 | 0.00 | 0.07 | 0.00 | 99 | 996.2 |
| 20260904061020 | 59 | 97 | 0.0 | 0.0 | 0.00 | 0.07 | 0.00 | 99 | 996.2 |
| 20260904060532 | 59 | 97 | 0.0 | 0.0 | 0.00 | 0.07 | 0.00 | 99 | 996.2 |
| 20260904060039 | 59 | 97 | 0.0 | 0.0 | 0.00 | 0.07 | 0.00 | 99 | 996.3 |
| 20260904055540 | 59 | 97 | 0.0 | 0.0 | 0.00 | 0.07 | 0.00 | 99 | 996.3 |
| 20260904055028 | 59 | 97 | 0.0 | 0.0 | 0.00 | 0.07 | 0.00 | 99 | 996.3 |
| 20260904054525 | 60 | 97 | 0.0 | 0.0 | 0.00 | 0.07 | 0.00 | 99 | 996.4 |
| 20260904054034 | 60 | 97 | 0.0 | 0.0 | 0.00 | 0.07 | 0.00 | 99 | 996.4 |
| 20260904053525 | 60 | 97 | 0.0 | 0.0 | 0.00 | 0.07 | 0.00 | 99 | 996.5 |
| 20260904053021 | 60 | 97 | 0.0 | 0.0 | 0.00 | 0.07 | 0.00 | 99 | 996.6 |
| 20260904052530 | 60 | 97 | 0.0 | 0.0 | 0.00 | 0.07 | 0.00 | 99 | 996.5 |
| 20260904052020 | 60 | 97 | 0.0 | 0.0 | 0.00 | 0.07 | 0.00 | 99 | 996.8 |
| 20260904051520 | 60 | 97 | 0.0 | 0.0 | 0.00 | 0.07 | 0.00 | 99 | 996.7 |
| 20260904051049 | 60 | 97 | 0.0 | 0.0 | 0.00 | 0.07 | 0.00 | 99 | 996.7 |
| 20260904050610 | 60 | 97 | 0.0 | 0.0 | 0.00 | 0.07 | 0.00 | 99 | 996.8 |
| 20260904050027 | 60 | 97 | 0.0 | 0.0 | 0.00 | 0.07 | 0.00 | 99 | 996.8 |
| 20260904045534 | 61 | 97 | 0.0 | 0.0 | 0.00 | 0.07 | 0.00 | 99 | 996.8 |
| 20260904045034 | 61 | 97 | 0.0 | 0.0 | 0.00 | 0.07 | 0.00 | 99 | 996.9 |
| 20260904044522 | 61 | 97 | 0.0 | 0.0 | 0.00 | 0.07 | 0.00 | 99 | 996.9 |
| 20260904044032 | 61 | 97 | 0.0 | 0.0 | 0.00 | 0.07 | 0.00 | 99 | 996.9 |
| 20260904043100 | 61 | 97 | 0.0 | 0.0 | 0.00 | 0.07 | 0.00 | 99 | 997.0 |